[[{"header":{"parameterUnit":"m.s-1","parameterCategory":1,"la1":30.2991,"la2":30.254,"lo1":-89.0895,"lo2":-89.0444,"dy":0.0017,"dx":0.0017,"nx":28,"ny":28,"refTime":"2025-12-11T03:00:00:Z","depth":0,"parameterNumber":2,"parameterNumberName":"U-component_of_WINDS"},"data":[0,0,0,0,0,0,0,0,0,0,0,0,0,0,0,0,0,0,0,0,0,0,0,0,0,0,0,0,0,0,0,0,0,0,0,0,0,0,0,0,0,0,0,0,0,0,0,0,0,0,0,0,0,0,0,0,0,0,-1.1834,-1.1835,0,-1.1901,-1.1902,-1.1903,-1.1859,-1.1857,-1.1855,-1.1853,-1.1924,-1.1928,-1.1932,0,0,0,0,0,0,0,0,0,0,0,0,0,-1.1669,-1.1672,-1.1834,-1.1835,-1.1836,-1.1901,-1.1902,-1.1903,-1.1859,-1.1857,-1.1854,-1.1852,-1.1923,-1.1928,-1.1932,0,0,0,0,0,0,0,0,0,0,0,0,0,-1.1739,-1.1673,-1.1834,-1.1821,-1.1821,-1.1901,-1.1902,-1.1903,-1.186,-1.1856,-1.1853,-1.1851,-1.1922,-1.1927,-1.1933,-1.2029,0,0,-1.195,-1.1953,0,0,0,0,0,0,0,0,-1.1735,-1.1745,-1.1822,-1.1822,-1.1822,-1.1868,-1.187,-1.1946,-1.186,-1.1845,-1.1853,-1.1849,-1.1908,-1.1915,-1.1934,-1.2033,-1.2036,-1.1951,-1.1954,-1.1957,-1.1958,0,0,0,0,0,0,0,-1.173,-1.1742,-1.1861,-1.1824,-1.1823,-1.1813,-1.182,-1.1884,-1.1893,-1.1846,-1.1843,-1.1851,-1.1908,-1.1929,-1.1936,-1.2037,-1.1951,-1.1956,-1.1959,-1.1961,-1.2217,-1.2221,0,0,0,0,0,0,-1.1726,-1.1738,-1.1858,-1.1863,-1.177,-1.1819,-1.1826,-1.1857,-1.1892,-1.1895,-1.1854,-1.1849,-1.1921,-1.1929,-1.1938,-1.2054,-1.1957,-1.1962,-1.1965,-1.2214,-1.2218,-1.2222,0,0,0,0,0,0,-1.1723,-1.1737,-1.1856,-1.18,-1.1814,-1.1825,-1.186,-1.186,-1.1881,-1.1898,-1.19,-1.1874,-1.1919,-1.193,-1.2007,-1.2056,-1.1965,-1.197,-1.221,-1.2215,-1.222,-1.2286,0,0,0,0,0,0,-1.1718,-1.1736,-1.1773,-1.1801,-1.1817,-1.1923,-1.1863,-1.1863,-1.1891,-1.1885,-1.1918,-1.192,-1.1917,-1.1999,-1.2013,-1.2062,-1.1974,-1.2206,-1.2212,-1.2218,-1.228,-1.2293,-1.2304,0,0,0,0,0,-1.1712,-1.179,-1.1775,-1.179,-1.1863,-1.1926,-1.1936,-1.193,-1.1895,-1.1932,-1.1943,-1.1919,-1.2048,-1.2007,-1.2022,-1.2074,-1.2203,-1.2211,-1.2218,-1.2275,-1.2291,-1.2304,0,0,0,0,0,0,-1.1769,-1.1793,-1.1777,-1.1866,-1.1894,-1.1919,-1.1966,-1.1947,-1.1987,-1.198,-1.1972,-1.198,-1.206,-1.2074,-1.2028,-1.2169,-1.212,-1.2131,-1.2158,-1.2173,-1.2185,-1.2181,-1.1979,0,0,0,0,0,-1.1791,-1.184,-1.1859,-1.1935,-1.195,-1.1955,-1.1982,-1.1975,-1.2005,-1.2017,-1.2033,-1.2064,-1.2111,-1.2142,-1.2186,-1.2281,-1.2288,-1.2324,-1.2336,-1.2346,-1.2357,-1.2408,-1.2424,-1.2247,-1.2247,-1.2247,0,0,-1.1839,-1.1858,-1.189,-1.1947,-1.1968,-1.2019,-1.1966,-1.2022,-1.206,-1.2026,-1.2099,-1.2112,-1.2145,-1.2231,-1.227,-1.2246,-1.2407,-1.2356,-1.2364,-1.2369,-1.2417,-1.2434,-1.2449,-1.2252,-1.2251,-1.225,0,0,-1.1952,-1.1971,-1.2037,-1.2058,-1.209,-1.2093,-1.2109,-1.2136,-1.2143,-1.2216,-1.2191,-1.2236,-1.2317,-1.2342,-1.2365,-1.2485,-1.2465,-1.25,-1.2565,-1.2615,-1.2629,-1.2641,-1.2685,-1.2701,-1.251,-1.251,-1.251,0,-1.2008,-1.2083,-1.2073,-1.2131,-1.2157,-1.2126,-1.2193,-1.2215,-1.226,-1.2279,-1.2251,-1.2352,-1.2372,-1.2463,-1.2492,-1.2511,-1.253,-1.2497,-1.2627,-1.264,-1.2651,-1.2693,-1.2709,-1.2514,-1.2513,-1.2513,-1.2513,0,-1.215,-1.2203,-1.2252,-1.2296,-1.2327,-1.2389,-1.2389,-1.2421,-1.2411,-1.2417,-1.2491,-1.2514,-1.2562,-1.2583,-1.2573,-1.2673,-1.2657,-1.2628,-1.2579,-1.2672,-1.2712,-1.2728,-1.252,-1.2518,-1.2517,-1.2516,0,0,-1.2304,-1.2339,-1.2358,-1.2377,-1.2409,-1.245,-1.251,-1.2556,-1.2585,-1.2616,-1.2668,-1.2736,-1.2709,-1.2735,-1.2728,-1.2772,-1.2866,-1.2738,-1.2738,-1.2762,-1.2978,-1.3001,-1.302,-1.2852,-1.2855,-1.2857,-1.2976,0,-1.242,-1.2525,-1.2517,-1.2616,-1.2665,-1.2635,-1.2688,-1.2714,-1.272,-1.2763,-1.2769,-1.2819,-1.2779,-1.2795,-1.2836,-1.2846,-1.291,-1.2837,-1.2901,-1.2903,-1.2896,-1.304,-1.3065,-1.3176,-1.2991,-1.2993,-1.2995,0,-1.257,-1.2606,-1.271,-1.2734,-1.2754,-1.2802,-1.2843,-1.2884,-1.2912,-1.2913,-1.2942,-1.2927,-1.2988,-1.2935,-1.3019,-1.297,-1.2995,-1.3004,-1.3008,-1.3016,-1.2957,-1.3054,-1.3211,-1.3228,-1.3019,-1.3017,-1.3016,0,-1.2674,-1.2748,-1.2819,-1.2837,-1.2866,-1.29,-1.2914,-1.2939,-1.2967,-1.3003,-1.3021,-1.3063,-1.3088,-1.3121,-1.3118,-1.3079,-1.3204,-1.3151,-1.3208,-1.3209,-1.3238,-1.3237,-1.3404,-1.3251,-1.3251,-1.325,-1.325,0,-1.2806,-1.2871,-1.2866,-1.2911,-1.2983,-1.2972,-1.3044,-1.3054,-1.3076,-1.3123,-1.3099,-1.3143,-1.3135,-1.3179,-1.3177,-1.3248,-1.3258,-1.3262,-1.3261,-1.3265,-1.3265,-1.3284,-1.3277,-1.3255,-1.3254,-1.3253,-1.3252,0,-1.2935,-1.2934,-1.3011,-1.3031,-1.3038,-1.309,-1.3108,-1.3151,-1.3154,-1.3212,-1.3226,-1.3231,-1.3282,-1.3281,-1.3339,-1.3337,-1.3425,-1.3414,-1.3415,-1.3414,-1.3472,-1.3467,-1.3659,-1.3684,-1.3513,-1.3514,-1.3516,0,-1.302,-1.307,-1.3095,-1.3124,-1.314,-1.3186,-1.3214,-1.3205,-1.3235,-1.327,-1.3308,-1.3356,-1.3394,-1.3476,-1.3485,-1.3529,-1.352,-1.3584,-1.3527,-1.353,-1.3523,-1.3521,-1.3527,-1.3596,-1.3598,-1.36,-1.3601,0,-1.3173,-1.3169,-1.321,-1.3251,-1.3284,-1.3316,-1.3345,-1.337,-1.3363,-1.3398,-1.3449,-1.3478,-1.3536,-1.3585,-1.3626,-1.3641,-1.3621,-1.3618,-1.3634,-1.3641,-1.364,-1.3643,-1.3448,-1.3615,-1.3614,-1.3613,-1.3612,-1.3611,-1.3284,-1.3326,-1.335,-1.3396,-1.3417,-1.3444,-1.3485,-1.3492,-1.3534,-1.358,-1.3571,-1.3628,-1.3654,-1.3708,-1.3726,-1.3771,-1.3748,-1.3771,-1.3777,-1.3784,-1.3791,-1.3631,-1.3778,-1.3778,-1.3777,-1.3777,-1.3777,0,-1.3436,-1.345,-1.3492,-1.3533,-1.3569,-1.3544,-1.3574,-1.3607,-1.3657,-1.3682,-1.3719,-1.3777,-1.3823,-1.3835,-1.388,-1.3913,-1.3905,-1.3925,-1.3924,-1.3928,-1.3808,-1.379,-1.3931,-1.3931,-1.3931,-1.3931,-1.3931,-1.3931,-1.352,-1.3591,-1.359,-1.367,-1.3683,-1.3738,-1.3758,-1.3783,-1.3803,-1.3868,-1.3906,-1.3913,-1.3933,-1.3978,-1.4019,-1.4022,-1.404,-1.4065,-1.4064,-1.3952,-1.3936,-1.3922,-1.3905,-1.4068,-1.4068,-1.418,-1.4181,-1.4182]},{"header":{"parameterUnit":"m.s-1","parameterCategory":1,"la1":30.2991,"la2":30.254,"lo1":-89.0895,"lo2":-89.0444,"dy":0.0017,"dx":0.0017,"nx":28,"ny":28,"refTime":"2025-12-11T03:00:00:Z","depth":0,"parameterNumber":3,"parameterNumberName":"V-component_of_WINDS"},"data":[0,0,0,0,0,0,0,0,0,0,0,0,0,0,0,0,0,0,0,0,0,0,0,0,0,0,0,0,0,0,0,0,0,0,0,0,0,0,0,0,0,0,0,0,0,0,0,0,0,0,0,0,0,0,0,0,0,0,-4.1758,-4.176,0,-4.1883,-4.1884,-4.1886,-4.1832,-4.1829,-4.1826,-4.1823,-4.1949,-4.1955,-4.1961,0,0,0,0,0,0,0,0,0,0,0,0,0,-4.1472,-4.1477,-4.1758,-4.176,-4.1761,-4.1883,-4.1884,-4.1886,-4.1833,-4.1829,-4.1826,-4.1822,-4.1947,-4.1954,-4.1962,0,0,0,0,0,0,0,0,0,0,0,0,0,-4.1596,-4.1479,-4.1758,-4.1749,-4.175,-4.1882,-4.1885,-4.1887,-4.1834,-4.1829,-4.1825,-4.182,-4.1945,-4.1954,-4.1963,-4.2111,0,0,-4.1991,-4.1995,0,0,0,0,0,0,0,0,-4.1589,-4.1607,-4.1749,-4.175,-4.1751,-4.1838,-4.1829,-4.1962,-4.1835,-4.1802,-4.1823,-4.1818,-4.1916,-4.1927,-4.196,-4.2116,-4.2122,-4.1992,-4.1998,-4.2001,-4.2004,0,0,0,0,0,0,0,-4.1581,-4.1601,-4.1807,-4.1751,-4.1752,-4.1739,-4.1751,-4.1854,-4.1882,-4.1804,-4.1801,-4.1816,-4.1915,-4.1951,-4.1963,-4.2124,-4.1992,-4.2,-4.2006,-4.2009,-4.2406,-4.2411,0,0,0,0,0,0,-4.1572,-4.1594,-4.1804,-4.1811,-4.1657,-4.1747,-4.1762,-4.1814,-4.1881,-4.1887,-4.182,-4.1813,-4.1938,-4.1952,-4.1967,-4.2144,-4.2001,-4.201,-4.2015,-4.2401,-4.2408,-4.2413,0,0,0,0,0,0,-4.1566,-4.1591,-4.1799,-4.1702,-4.1727,-4.1757,-4.1817,-4.1819,-4.1855,-4.1893,-4.1898,-4.1852,-4.1935,-4.1954,-4.2075,-4.2148,-4.2014,-4.2023,-4.2396,-4.2403,-4.241,-4.25,0,0,0,0,0,0,-4.1558,-4.159,-4.1647,-4.1704,-4.1733,-4.1906,-4.1821,-4.1825,-4.1872,-4.1864,-4.1924,-4.193,-4.1933,-4.2062,-4.2084,-4.2158,-4.203,-4.2389,-4.2399,-4.2408,-4.2491,-4.251,-4.2526,0,0,0,0,0,-4.1548,-4.1667,-4.165,-4.1676,-4.1805,-4.191,-4.1927,-4.1928,-4.1878,-4.1935,-4.1959,-4.1928,-4.2136,-4.2075,-4.21,-4.2177,-4.2385,-4.2396,-4.2407,-4.2483,-4.2506,-4.2526,0,0,0,0,0,0,-4.1617,-4.1674,-4.1656,-4.1797,-4.1849,-4.1901,-4.1973,-4.1952,-4.202,-4.201,-4.2008,-4.2022,-4.2147,-4.2174,-4.2105,-4.2323,-4.2253,-4.2269,-4.2302,-4.2324,-4.2341,-4.2332,-4.2038,0,0,0,0,0,-4.1649,-4.1731,-4.1775,-4.1895,-4.1922,-4.1944,-4.1989,-4.1986,-4.204,-4.2062,-4.2094,-4.2147,-4.2224,-4.2275,-4.2348,-4.2494,-4.2506,-4.2559,-4.2577,-4.2591,-4.2606,-4.2685,-4.2709,-4.245,-4.245,-4.245,0,0,-4.1715,-4.1756,-4.1808,-4.191,-4.195,-4.2034,-4.1962,-4.2054,-4.2116,-4.2075,-4.2192,-4.2218,-4.2277,-4.2411,-4.2471,-4.2437,-4.268,-4.2606,-4.2617,-4.2624,-4.2699,-4.2723,-4.2745,-4.2458,-4.2456,-4.2455,0,0,-4.1879,-4.1918,-4.2022,-4.2064,-4.2126,-4.2139,-4.2164,-4.2219,-4.2235,-4.2352,-4.2323,-4.2396,-4.2529,-4.2572,-4.2611,-4.279,-4.2764,-4.2814,-4.2906,-4.2983,-4.3003,-4.3021,-4.3085,-4.3108,-4.2828,-4.2828,-4.2829,0,-4.1953,-4.2079,-4.2078,-4.2173,-4.2218,-4.2185,-4.229,-4.233,-4.2412,-4.2444,-4.2404,-4.257,-4.2608,-4.2751,-4.2795,-4.2828,-4.2856,-4.2807,-4.3,-4.3018,-4.3035,-4.3096,-4.312,-4.2834,-4.2833,-4.2833,-4.2832,0,-4.2168,-4.2255,-4.2332,-4.2413,-4.2467,-4.2566,-4.2579,-4.2633,-4.2625,-4.2642,-4.2761,-4.2804,-4.2886,-4.2919,-4.2911,-4.3062,-4.3038,-4.3,-4.2929,-4.3066,-4.3123,-4.3146,-4.2842,-4.284,-4.2838,-4.2837,0,0,-4.238,-4.2458,-4.2486,-4.2522,-4.2588,-4.2655,-4.2752,-4.2832,-4.2879,-4.2936,-4.3017,-4.313,-4.3095,-4.3139,-4.3136,-4.3203,-4.3342,-4.3156,-4.3157,-4.3189,-4.351,-4.354,-4.3567,-4.3325,-4.3329,-4.3333,-4.3505,0,-4.2548,-4.272,-4.2721,-4.2878,-4.2959,-4.2928,-4.3012,-4.3061,-4.3079,-4.315,-4.3169,-4.325,-4.3196,-4.3223,-4.3288,-4.3312,-4.3407,-4.3299,-4.34,-4.3404,-4.3387,-4.3597,-4.3628,-4.3789,-4.3528,-4.3532,-4.3534,0,-4.2769,-4.2834,-4.3,-4.3053,-4.3087,-4.3163,-4.3236,-4.3304,-4.3358,-4.3366,-4.3416,-4.3402,-4.35,-4.3425,-4.356,-4.3487,-4.3528,-4.3545,-4.3551,-4.3562,-4.3478,-4.3613,-4.3841,-4.3865,-4.3569,-4.3567,-4.3564,0,-4.2907,-4.3036,-4.3152,-4.3184,-4.3249,-4.3303,-4.3332,-4.3382,-4.343,-4.3493,-4.3524,-4.3597,-4.3638,-4.3695,-4.3701,-4.3646,-4.3836,-4.3762,-4.3846,-4.3846,-4.3888,-4.3886,-4.4126,-4.3914,-4.3913,-4.3913,-4.3912,0,-4.3096,-4.3199,-4.3215,-4.3287,-4.34,-4.34,-4.3512,-4.3537,-4.3581,-4.3656,-4.3633,-4.3704,-4.3707,-4.3779,-4.3784,-4.3895,-4.3913,-4.3922,-4.3922,-4.3925,-4.3924,-4.3952,-4.3942,-4.3919,-4.3918,-4.3916,-4.3915,0,-4.3271,-4.3286,-4.341,-4.3461,-4.3476,-4.3558,-4.3601,-4.3669,-4.3684,-4.3779,-4.3801,-4.3825,-4.3909,-4.392,-4.4018,-4.4021,-4.4154,-4.4142,-4.4137,-4.4135,-4.4218,-4.4211,-4.4487,-4.4523,-4.4286,-4.4288,-4.429,0,-4.3391,-4.347,-4.3529,-4.3578,-4.361,-4.3689,-4.3737,-4.374,-4.3791,-4.3858,-4.3918,-4.3999,-4.4064,-4.4199,-4.4225,-4.4299,-4.4289,-4.4381,-4.43,-4.43,-4.4291,-4.4287,-4.4295,-4.4397,-4.4399,-4.4401,-4.4403,0,-4.3603,-4.3606,-4.3678,-4.3752,-4.3811,-4.3869,-4.3924,-4.3965,-4.3974,-4.4033,-4.4118,-4.4169,-4.4268,-4.4349,-4.4423,-4.4451,-4.4429,-4.4428,-4.4451,-4.4455,-4.4449,-4.4454,-4.418,-4.4422,-4.442,-4.4419,-4.4418,-4.4417,-4.3755,-4.3823,-4.3875,-4.3955,-4.3996,-4.4048,-4.4114,-4.4138,-4.4209,-4.4291,-4.4288,-4.4382,-4.4433,-4.4529,-4.4563,-4.4636,-4.4606,-4.464,-4.4649,-4.4657,-4.4666,-4.4437,-4.4649,-4.4649,-4.4648,-4.4648,-4.4647,0,-4.3966,-4.3998,-4.4071,-4.4149,-4.4212,-4.4185,-4.4244,-4.4298,-4.4382,-4.4431,-4.4496,-4.4594,-4.4672,-4.4704,-4.478,-4.4832,-4.4824,-4.4852,-4.4849,-4.4856,-4.4688,-4.4661,-4.4858,-4.4858,-4.4858,-4.4858,-4.4858,-4.4858,-4.4083,-4.4197,-4.4206,-4.434,-4.4371,-4.4463,-4.4499,-4.4547,-4.4586,-4.4697,-4.4762,-4.4782,-4.4825,-4.4904,-4.4974,-4.4981,-4.501,-4.5044,-4.5046,-4.4889,-4.4868,-4.4848,-4.4822,-4.505,-4.505,-4.5208,-4.521,-4.5211]}]]